Powrót do katalogu

SL-12 R/B

AUX MOTOR

AktywnyHEO
NORAD 20630·ROCKET BODY·🇷🇺 Russia

Wystrzelony May 19, 1990 z Baikonur Cosmodrome

Loading…

Następne Przeloty (najbliższe 24 godziny)

TLE

ŚwieżeSource: Space-Track

Epoka: Sep 14, 2026, 11:22 UTC

1 20630U 90045F   26257.47407226  .00000197  00000-0  40433-3 0  9997
2 20630  65.0802 206.5400 5674076  38.1539 350.8152  4.32104266569872

Śledź SL-12 R/B w czasie rzeczywistym z AllMySat

Download on the App Store